This is the latest recevied weather packets stored in our database for station/object IZ3ZOD-13. If no packets are shown the sender has not sent any weather packets the latest 10 day(s).
| Time | Temp. | Humidity | Pressure | Rain* | Wind** | Luminosity | Snow |
|---|---|---|---|---|---|---|---|
| 1777823524 | 23.89° C | 45% | 1016.4 hPa | 0 mm | - | - | - |
| 1777823416 | 23.89° C | 44% | 1016.7 hPa | 0 mm | - | - | - |
| 1777818373 | 25.56° C | 39% | 1017.3 hPa | 0 mm | - | - | - |
| 1777816803 | 25° C | 42% | 1017.4 hPa | 0 mm | - | - | - |
| 1777815363 | 26.11° C | 35% | 1017.3 hPa | 0 mm | - | - | - |
| 1777812243 | 26.67° C | 29% | 1018 hPa | 0 mm | - | - | - |
| 1777810563 | 26.67° C | 29% | 1018.1 hPa | 0 mm | - | - | - |
| 1777808883 | 25.56° C | 30% | 1018.3 hPa | 0 mm | - | - | - |
| 1777807683 | 25.56° C | 31% | 1018.5 hPa | 0 mm | - | - | - |
| 1777802643 | 24.44° C | 36% | 1019.1 hPa | 0 mm | - | - | - |
| 1777801683 | 24.44° C | 36% | 1019.1 hPa | 0 mm | - | - | - |
| 1777801443 | 23.89° C | 38% | 1019.3 hPa | 0 mm | - | - | - |
| 1777800617 | 23.89° C | 36% | 1019.3 hPa | 0 mm | - | - | - |
| 1777799284 | 23.89° C | 37% | 1019.4 hPa | 0 mm | - | - | - |
| 1777795923 | 22.22° C | 45% | 1019.5 hPa | 0 mm | - | - | - |
| 1777793524 | 20° C | 55% | 1019.6 hPa | 0 mm | - | - | - |
| 1777790883 | 18.33° C | 59% | 1019.5 hPa | 0 mm | - | - | - |
| 1777790164 | 17.78° C | 60% | 1019.6 hPa | 0 mm | - | - | - |
| 1777789924 | 17.78° C | 61% | 1019.7 hPa | 0 mm | - | - | - |
| 1777789444 | 17.78° C | 61% | 1019.6 hPa | 0 mm | - | - | - |
| 1777788243 | 16.11° C | 64% | 1019.6 hPa | 0 mm | - | - | - |
| 1777787283 | 15.56° C | 66% | 1019.5 hPa | 0 mm | - | - | - |
| 1777783577 | 11.67° C | 76% | 1019.4 hPa | 0 mm | - | - | - |
| 1777782483 | 10° C | 79% | 1019.3 hPa | 0 mm | - | - | - |
| 1777781283 | 8.89° C | 83% | 1019.2 hPa | 0 mm | - | - | - |
* Rain latest hour (hover to see other rain measurements)
** Current wind speed in m/s (hover to see current wind gust speed)